Weather History for KLWV - May, 2013

Change the Weather History Date:

Saturday, May 4, 2013

  Actual Average Record
Temperature  
Mean Temperature 58 °F 62 °F  
Max Temperature 65 °F 73 °F 87 °F (2001)
Min Temperature 50 °F 52 °F 33 °F (2005)
Degree Days  
Heating Degree Days 7 4  
Month to date heating degree days 7 18  
Since 1 July heating degree days 4856 4609  
Cooling Degree Days 0 2  
Month to date cooling degree days 14 6  
Year to date cooling degree days 36 32  
Growing Degree Days 7 (Base 50)    
Moisture  
Dew Point 52 °F    
Average Humidity 84    
Maximum Humidity 100    
Minimum Humidity 67    
Precipitation  
Precipitation 0.98 in 0.20 in 1.07 in (1978)
Month to date precipitation 1.06 0.81  
Year to date precipitation 18.76 12.79  
Sea Level Pressure  
Sea Level Pressure 29.95 in    
Wind  
Wind Speed 6 mph (South)    
Max Wind Speed 18 mph    
Max Gust Speed 22 mph    
Visibility 4 miles    
Events Rain    
T = Trace of Precipitation, MM = Missing Value Source: NWS Daily Summary

Daily Weather History Graph

Daily Weather History Graph

Search for Another Location

Airport or City:

Trip Planner

Search our weather history database for the weather conditions in past years. The results will help you decide how hot, cold, wet, or windy it might be!

Date:

Astronomy

May. 04, 2013 Rise Set
Actual Time 5:49 AM CDT 7:45 PM CDT
Civil Twilight 5:20 AM CDT 8:14 PM CDT
Nautical Twilight 4:44 AM CDT 8:50 PM CDT
Astronomical Twilight 4:06 AM CDT 9:28 PM CDT
Moon 2:44 AM CDT 2:46 PM CDT
Length of Visible Light 14h 54m
Length of Day
13h 56m
Waning Crescent, 27% of the Moon is Illuminated
May 4
Waning Crescent
May 9
New
May 17
First Quarter
May 24
Full
May 31
Last Quarter

Hourly Weather History & Observations

Time (CDT) Temp. Dew Point Humidity Pressure Visibility Wind Dir Wind Speed Gust Speed Precip Events Conditions
12:53 AM 64.9 °F 53.1 °F 65% 29.87 in 10.0 mi SSE 13.8 mph - N/A   Overcast
1:53 AM 59.0 °F 54.0 °F 83% 29.87 in 10.0 mi SSW 8.1 mph - N/A   Overcast
2:53 AM 57.9 °F 54.0 °F 87% 29.86 in 9.0 mi Calm Calm - 0.00 in Rain Light Rain
3:53 AM 57.9 °F 55.0 °F 90% 29.87 in 5.0 mi SSW 9.2 mph - 0.03 in Rain Light Rain
4:08 AM 57.2 °F 53.6 °F 88% 29.87 in 6.0 mi SSW 8.1 mph - 0.00 in   Overcast
4:44 AM 55.4 °F 51.8 °F 88% 29.87 in 7.0 mi SW 8.1 mph - 0.00 in   Mostly Cloudy
4:53 AM 54.0 °F 52.0 °F 93% 29.87 in 8.0 mi WSW 6.9 mph - 0.00 in   Overcast
5:53 AM 52.0 °F 50.0 °F 93% 29.88 in 10.0 mi SW 6.9 mph - N/A   Overcast
6:53 AM 51.1 °F 48.9 °F 92% 29.91 in 5.0 mi West 3.5 mph - 0.01 in Rain Light Rain
7:05 AM 51.8 °F 48.2 °F 88% 29.91 in 5.0 mi WSW 3.5 mph - 0.01 in Rain Light Rain
7:53 AM 52.0 °F 50.0 °F 93% 29.92 in 6.0 mi SW 3.5 mph - 0.01 in Rain Light Rain
8:15 AM 51.8 °F 50.0 °F 94% 29.93 in 1.8 mi SSW 3.5 mph - 0.04 in Rain Rain
8:28 AM 51.8 °F 50.0 °F 94% 29.92 in 1.5 mi Calm Calm - 0.06 in Rain Rain
8:33 AM 51.8 °F 50.0 °F 94% 29.92 in 3.0 mi West 3.5 mph - 0.07 in Rain Light Rain
8:53 AM 52.0 °F 50.0 °F 93% 29.91 in 4.0 mi Calm Calm - 0.07 in Rain Light Rain
9:29 AM 53.6 °F 51.8 °F 94% 29.92 in 2.0 mi Calm Calm - 0.05 in Rain Rain
9:46 AM 53.6 °F 51.8 °F 94% 29.92 in 1.5 mi Calm Calm - 0.08 in Rain Light Rain
9:53 AM 54.0 °F 51.1 °F 90% 29.92 in 2.0 mi Calm Calm - 0.09 in Rain Light Rain
10:04 AM 53.6 °F 51.8 °F 94% 29.93 in 4.0 mi Calm Calm - 0.01 in Rain Light Rain
10:17 AM 55.4 °F 51.8 °F 88% 29.93 in 2.5 mi Calm Calm - 0.02 in Rain Light Rain
10:24 AM 55.4 °F 51.8 °F 88% 29.93 in 3.0 mi Calm Calm - 0.02 in Rain Light Rain
10:31 AM 55.4 °F 53.6 °F 94% 29.93 in 3.0 mi Calm Calm - 0.03 in Rain Light Rain
10:36 AM 55.4 °F 53.6 °F 94% 29.94 in 2.5 mi SE 3.5 mph - 0.04 in Rain Light Rain
10:48 AM 55.4 °F 51.8 °F 88% 29.93 in 1.8 mi Calm Calm - 0.06 in Rain Rain
10:53 AM 55.0 °F 53.1 °F 93% 29.93 in 1.5 mi Calm Calm - 0.08 in Rain Rain
11:13 AM 55.4 °F 53.6 °F 94% 29.93 in 1.5 mi SE 4.6 mph - 0.07 in Rain Rain
11:20 AM 55.4 °F 53.6 °F 94% 29.93 in 1.5 mi SE 11.5 mph 17.3 mph 0.10 in Rain Heavy Rain
11:29 AM 55.4 °F 53.6 °F 94% 29.94 in 2.0 mi SE 12.7 mph - 0.12 in Rain Rain
11:53 AM 55.9 °F 53.1 °F 90% 29.94 in 2.0 mi ESE 10.4 mph - 0.16 in Rain Rain
12:49 PM 57.2 °F 53.6 °F 88% 29.95 in 3.0 mi SSE 15.0 mph - 0.09 in Rain Light Rain
12:53 PM 54.0 °F 52.0 °F 93% 29.95 in 2.5 mi SSW 12.7 mph - 0.09 in Rain Rain
1:00 PM 53.6 °F 51.8 °F 94% 29.95 in 2.5 mi SSW 11.5 mph - 0.01 in Rain Light Rain
1:05 PM 51.8 °F 50.0 °F 94% 29.96 in 3.0 mi SSW 13.8 mph - 0.01 in Rain Light Rain
1:13 PM 51.8 °F 50.0 °F 94% 29.96 in 4.0 mi SSW 11.5 mph - 0.02 in Rain Light Rain
1:23 PM 51.8 °F 50.0 °F 94% 29.96 in 3.0 mi SSW 8.1 mph - 0.03 in Rain Light Rain
1:53 PM 52.0 °F 50.0 °F 93% 29.97 in 3.0 mi SSE 8.1 mph - 0.07 in Rain Light Rain
2:01 PM 53.6 °F 50.0 °F 88% 29.97 in 3.0 mi SSE 8.1 mph - 0.01 in Rain Light Rain
2:18 PM 53.6 °F 50.0 °F 88% 29.97 in 4.0 mi South 9.2 mph - 0.03 in Rain Light Rain
2:53 PM 53.1 °F 51.1 °F 93% 29.97 in 3.0 mi SSE 8.1 mph - 0.06 in Rain Light Rain
3:53 PM 53.1 °F 50.0 °F 89% 29.96 in 5.0 mi SSE 8.1 mph - 0.01 in Rain Light Rain
4:53 PM 54.0 °F 51.1 °F 90% 29.96 in 5.0 mi SSE 4.6 mph - 0.01 in Rain Light Rain
5:01 PM 53.6 °F 51.8 °F 94% 29.97 in 5.0 mi SSE 4.6 mph - 0.00 in Rain Light Rain
5:23 PM 55.4 °F - N/A% 29.98 in 3.0 mi SE 8.1 mph - 0.02 in Rain Light Rain
5:51 PM 53.6 °F - N/A% 29.98 in 2.0 mi SE 5.8 mph - 0.06 in Rain Rain
5:53 PM 54.0 °F - N/A% 29.98 in 2.0 mi SE 5.8 mph - 0.06 in Rain Rain
6:03 PM 53.6 °F - N/A% 29.98 in 1.8 mi SE 5.8 mph - 0.03 in Rain Rain
6:12 PM 53.6 °F - N/A% 29.98 in 2.0 mi SE 5.8 mph - 0.05 in Rain Rain
6:28 PM 53.6 °F - N/A% 29.98 in 4.0 mi ESE 10.4 mph - 0.06 in Rain Light Rain
6:38 PM 53.6 °F - N/A% 29.98 in 6.0 mi ESE 10.4 mph - 0.07 in Rain Light Rain
6:53 PM 54.0 °F - N/A% 29.99 in 6.0 mi ESE 8.1 mph - 0.07 in Rain Light Rain
7:32 PM 53.6 °F - N/A% 29.98 in 8.0 mi Calm Calm - 0.02 in Rain Light Rain
7:53 PM 54.0 °F 54.0 °F 100% 29.98 in 9.0 mi Calm Calm - 0.02 in Rain Light Rain
8:07 PM 53.6 °F 53.6 °F 100% 29.99 in 6.0 mi ESE 3.5 mph - 0.01 in Rain Light Rain
8:23 PM 53.6 °F 53.6 °F 100% 29.99 in 4.0 mi East 3.5 mph - 0.03 in Rain Light Rain
8:41 PM 53.6 °F 53.6 °F 100% 30.00 in 6.0 mi Variable 3.5 mph - 0.04 in Rain Light Rain
8:50 PM 53.6 °F 53.6 °F 100% 30.00 in 5.0 mi SW 4.6 mph - 0.04 in Rain Light Rain
8:53 PM 53.1 °F 53.1 °F 100% 30.00 in 5.0 mi SW 4.6 mph - 0.04 in Rain Light Rain
9:44 PM 51.8 °F 50.0 °F 94% 30.01 in 4.0 mi West 5.8 mph - 0.02 in Rain Light Rain
9:53 PM 51.1 °F 50.0 °F 96% 30.02 in 4.0 mi West 5.8 mph - 0.03 in Rain Light Rain
10:53 PM 50.0 °F 50.0 °F 100% 30.00 in 7.0 mi NW 8.1 mph - 0.00 in Rain Light Rain
11:53 PM 51.1 °F 51.1 °F 100% 29.99 in 5.0 mi NW 6.9 mph - 0.05 in Rain Light Rain